Velovelo
Português Nederlands 日本語 中文
Español English čeština slovenčina
русский italiano polski norsk
français Deutsch svenska عربي
 
 предыдущая страница
 отправить друзьям
 распечатать
 ---> La Lozérienne 2010 : résultats du 88 km

Cl......Nom PrénomCaté...Cl.c....Temps......Ecart.......
1 Charrade Maxime B 1 2:41:08
2 Caramel Maxime A 1 2:41:11 0:00:03
3 Defever Robin A 2 2:41:13 0:00:04
4 Jeanjean Nicolas C 1 2:41:19 0:00:10
5 Gerbal Thomas A 3 2:43:24 0:02:16
6 Rozwadowski Antoine B 2 2:43:25 0:02:17
7 Michel Jean Claude C 2 2:45:05 0:03:57
8 Talagrand Pierre A 4 2:45:06 0:03:58
9 Pinol Danny A 5 2:45:08 0:03:59
10 Geraud Alain D 1 2:45:09 0:04:01
11 Bessière Christian C 3 2:45:12 0:04:03
12 Chaptal Nicolas B 3 2:45:18 0:04:10
13 Michel Julien A 6 2:45:52 0:04:44
14 Marques Tony A 7 2:46:43 0:05:35
15 Daudé Mathieu A 8 2:46:46 0:05:38
16 Poujols Jérôme A 9 2:46:50 0:05:42
17 Courricu Jean Michel C 4 2:46:50 0:05:42
18 Paysal Bertrand B 4 2:46:56 0:05:48
19 Armand Mickael B 5 2:46:57 0:05:48
20 Jeanjean Gilles C 5 2:47:06 0:05:58
21 Moulin Stéphane B 6 2:47:06 0:05:58
22 Clemens Olivier B 7 2:47:18 0:06:09
23 Pedulla Bruno C 6 2:47:41 0:06:33
24 Le Gal Vincent A 10 2:47:42 0:06:33
25 Couderc Sébastien B 8 2:48:07 0:06:58
26 Pouilhe David B 9 2:48:29 0:07:20
27 Roch Bruno C 7 2:48:34 0:07:26
28 Delbos Xavier C 8 2:48:35 0:07:27
29 Gerbal Sylvain A 11 2:48:36 0:07:28
30 Soler Xavier C 9 2:48:37 0:07:29
31 Dena Bruno B 10 2:48:37 0:07:29
32 Veyrac Gérard E 1 2:48:38 0:07:29
33 Laurent Stéphane B 11 2:48:39 0:07:31
34 Pelloux-Tytgat Romaric A 12 2:49:58 0:08:50
35 Loubet Patrick C 10 2:50:28 0:09:20
36 Sannie Frank C 11 2:50:29 0:09:21
37 Bonicel André D 2 2:50:29 0:09:21
38 Berlaguet Jean Marie D 3 2:50:31 0:09:22
39 Villevieille Emmanuel C 12 2:51:29 0:10:20
40 Jovencel Philippe D 4 2:52:15 0:11:06
41 Brégou Emmanuel C 13 2:53:34 0:12:26
42 Gely Daniel B 12 2:54:25 0:13:17
43 Carteau Didier C 14 2:54:33 0:13:24
44 Bonnefoy Gilles C 15 2:55:30 0:14:21
45 Léoncé Thierry D 5 2:55:37 0:14:29
46 Debar Guy D 6 2:57:38 0:16:30
47 Bertone Roman A 13 2:57:40 0:16:32
48 Granie Sébastien C 16 2:57:49 0:16:41
49 Raynaud Yves D 7 2:57:52 0:16:44
50 Dejean patrick C 17 2:59:00 0:17:52
51 Lagasse Lionel B 13 2:59:23 0:18:14
52 Dussart Thierry C 18 2:59:23 0:18:15
53 Reilhan Florian B 14 2:59:24 0:18:16
54 Leymarie Yves D 8 2:59:25 0:18:17
55 Avenas Cyril B 15 2:59:26 0:18:18
56 Ragonnet Jean Marc E 2 2:59:26 0:18:18
57 Pages Bruno C 19 2:59:27 0:18:18
58 Lacombe Francis D 9 2:59:28 0:18:19
59 Buisson Yannick B 16 3:00:14 0:19:06
60 Audet Sébastien B 17 3:00:20 0:19:12
61 Lozano Chavez Tony B 18 3:00:26 0:19:18
62 Parra Jean Charles D 10 3:01:46 0:20:38
63 Boucharin Sylvain A 14 3:01:47 0:20:38
64 Decivert Nicolas A 15 3:01:47 0:20:39
65 Hak Christel W 1 3:02:23 0:21:14
66 Enjelvin Louis F 1 3:02:23 0:21:15
67 Malaval Frédéric B 19 3:02:37 0:21:28
68 Fabre Bertrand D 11 3:02:47 0:21:39
69 Mas Jérôme B 20 3:02:59 0:21:51
70 Para Damien A 16 3:03:10 0:22:01
71 Boussac Lilian C 20 3:04:26 0:23:18
72 Delmas Robert C 21 3:04:29 0:23:21
73 Cross Alan E 3 3:04:44 0:23:35
74 Darde Dominique C 22 3:04:45 0:23:37
75 Barrès Louis E 4 3:05:03 0:23:55
76 Margueritat Jean Michel C 23 3:05:17 0:24:09
77 Palis Michel E 5 3:05:31 0:24:23
78 Garcia Patrick C 24 3:06:14 0:25:05
79 Jolly Jean Pierre E 6 3:08:31 0:27:23
80 Cortes Michel E 7 3:08:32 0:27:24
81 Privat Eric B 21 3:08:34 0:27:26
82 Reilhn Olivier B 22 3:08:47 0:27:39
83 Blanquet Jean Luc C 25 3:08:53 0:27:45
84 Couderc Francis D 12 3:09:28 0:28:20
85 Miette Guilhem A 17 3:10:17 0:29:09
86 Jacquemart Thierry C 26 3:10:54 0:29:46
87 Combes Jean Louis E 8 3:10:56 0:29:48
88 Soler Philippe C 27 3:11:37 0:30:29
89 Villeger Fabrice C 28 3:11:38 0:30:29
90 Lunet De Lajonquiere Gilles B 23 3:11:56 0:30:48
91 Vento Louis E 9 3:12:26 0:31:18
92 Périé Jean E 10 3:12:27 0:31:19
93 Touny Christian E 11 3:12:28 0:31:19
94 Baffeleuf Lucien E 12 3:12:29 0:31:21
95 Roquette Christian D 13 3:12:53 0:31:44
96 Mazars Yvan F 2 3:13:15 0:32:07
97 Peligry Jean Michel C 29 3:13:35 0:32:26
98 Ambroise Edwin A 18 3:13:58 0:32:50
99 Bonnel Bertrand B 24 3:13:59 0:32:51
100 Perret Monique W 1 3:15:45 0:34:37
101 Mirales Guy E 13 3:17:03 0:35:55
102 Fabre Mickael B 25 3:17:04 0:35:56
103 Duffour Claude D 14 3:18:14 0:37:06
104 Piou Frédéric C 30 3:19:45 0:38:36
105 Delarce Frédéric A 19 3:20:03 0:38:55
106 Verdier Marine W 2 3:21:27 0:40:19
107 Bernard Thomas A 20 3:22:13 0:41:05
108 Autric Frédéric C 31 3:22:14 0:41:06
109 Chevé Patrick D 15 3:22:27 0:41:18
110 Ruiz Valentin A 21 3:24:37 0:43:28
111 Anselmino Pierre E 14 3:25:36 0:44:28
112 Mathieu Bertrand B 26 3:26:58 0:45:50
113 Bonnet Benoit B 27 3:26:59 0:45:51
114 Meissonnier Patrick D 16 3:27:07 0:45:59
115 Joffron Pascale W 1 3:27:09 0:46:01
116 Lebrisse Anne W 3 3:27:13 0:46:05
117 Costas Joseph D 17 3:27:44 0:46:36
118 De Falvard Thierry D 18 3:29:59 0:48:50
119 Wolniczak Stéphane B 28 3:30:45 0:49:37
120 Loubat patrick C 32 3:31:09 0:50:00
121 Joussouys Serge D 19 3:31:16 0:50:08
122 Bourniquel Laurent B 29 3:34:02 0:52:54
123 Jouanet Jean Pierre F 3 3:34:47 0:53:39
124 Pinol Christophe D 20 3:35:15 0:54:07
125 Miraoui David B 30 3:37:57 0:56:49
126 Touquet Jean Dominique E 15 3:38:46 0:57:38
127 Villatte Jean Paul E 16 3:39:57 0:58:48
128 Laurent Marc B 31 3:41:11 1:00:03
129 Raso Reine W 2 3:43:24 1:02:16
130 Parinet Hubert F 4 3:43:28 1:02:19
131 Dugreneau Sylvie W 3 3:43:50 1:02:42
132 Lafuente Murielle W 4 3:44:32 1:03:23
133 Bourret Jean Marc C 33 3:45:09 1:04:01
134 Diaz Ginès F 5 3:48:04 1:06:56
135 Gisquet Florent B 32 3:49:21 1:08:13
136 Baron Gérard E 17 3:50:48 1:09:40
137 Arjailles Fabien B 33 3:51:05 1:09:57
138 Granier Jean Pierre E 18 3:54:47 1:13:39
139 Ducousso André F 6 3:59:39 1:18:31
140 Lapierre Pierre E 19 4:04:00 1:22:52
141 Duc Michel E 20 4:04:01 1:22:52
142 Rouchy Bertrand E 21 4:04:01 1:22:53
143 Diet André E 22 4:09:11 1:28:03
144 Colas Daniel D 21 4:14:54 1:33:46
145 Guillobez Bernadette W 4 4:36:29 1:55:21
146 Chapel Claudine W 5 4:36:38 1:55:30

Haut 









Haut  
 Административная часть   Авторские права-Copyright: Жмите сюда Чтобы прочитать !